Wind_Speed
33 29 25 22 17 12 13 12 8 11 14 18 23 19 15 17 16 13 13 14 11 9 9 11 15 16 14 13 14 13 12 13 15 15 16 15 15 14 13 10 9 9 10 11 14 14 13 11 12 13 12 12 12 13 13 14 15 17 18 20 20 19 15 11 9 10 9 9 9 10 11 10 9 8 7 7 7 8 8 8 7 6 6 5 3 1 1
30 33 28 24 18 14 15 11 10 15 14 11 17 20 18 18 17 14 15 17 16 14 13 14 13 12 11 11 11 12 12 13 14 16 16 15 15 14 13 11 9 8 8 11 14 15 13 11 12 12 12 12 12 12 13 13 15 17 19 21 21 18 13 9 8 8 8 9 10 11 11 11 11 11 11 10 10 9 9 7 6 5 5 4 3 2 2
25 34 34 28 21 19 20 15 12 15 15 8 13 20 19 19 16 13 14 16 17 19 19 16 10 7 8 10 11 12 13 13 14 16 16 16 15 13 12 11 10 9 8 10 13 14 13 12 12 12 12 12 11 12 12 13 14 16 19 21 20 16 12 8 8 7 7 9 10 11 11 12 12 12 11 11 9 8 8 6 5 5 5 5 4 4 3
20 26 33 32 27 23 23 20 17 16 15 13 17 20 20 19 17 14 14 16 15 17 19 15 11 9 10 12 15 15 14 14 15 17 17 16 15 13 12 11 11 11 9 9 11 13 12 11 11 12 12 12 12 12 12 13 14 16 19 19 17 14 10 8 8 7 7 9 9 10 11 11 11 11 10 10 8 7 7 6 6 6 5 5 4 4 4
17 16 24 30 34 30 26 24 23 20 17 17 20 23 24 23 20 17 19 20 20 20 20 18 17 17 15 14 14 13 13 14 16 18 17 16 14 13 12 11 11 10 9 8 9 11 11 10 10 11 11 11 11 11 11 13 14 16 18 17 15 13 10 8 8 7 8 9 9 10 10 10 10 10 9 8 7 6 6 6 5 5 4 3 4 3 4
19 17 19 23 29 31 29 30 28 23 20 21 22 23 23 22 21 19 20 22 24 24 22 19 20 22 21 17 15 15 15 15 17 18 16 15 15 13 12 11 10 8 8 7 8 9 10 9 9 10 10 9 9 10 10 12 13 15 16 15 14 12 10 9 7 7 7 8 8 9 9 9 9 8 8 7 6 6 5 5 5 4 4 3 3 4 4
17 21 20 17 16 19 25 31 30 25 24 25 24 23 21 21 22 22 22 23 24 24 23 20 21 22 23 22 22 21 20 18 18 18 16 16 15 13 12 10 7 7 7 7 7 9 9 8 8 9 9 8 8 8 9 11 12 13 15 15 14 12 11 9 7 7 7 7 7 8 8 8 8 8 7 7 6 5 5 5 4 4 4 3 3 3 4
14 20 21 17 13 13 18 24 29 28 27 27 27 26 24 23 23 24 24 24 24 25 25 23 21 21 23 24 23 21 20 19 19 19 17 17 15 12 10 7 5 6 7 7 7 8 8 7 8 8 7 7 7 7 9 11 11 12 14 15 14 13 12 10 8 7 6 6 6 7 7 8 8 8 8 7 6 6 5 5 4 3 3 3 3 4 4
12 18 21 19 15 14 15 19 24 26 26 26 27 26 25 24 23 24 26 27 27 27 27 25 22 21 21 20 17 16 16 18 19 18 18 16 14 11 9 7 5 7 7 7 7 8 7 7 8 7 6 6 6 6 8 10 10 11 13 14 14 13 11 9 7 6 5 5 5 6 6 7 7 8 7 7 6 6 6 5 4 3 3 3 3 4 5
11 17 20 20 16 16 18 19 21 24 26 26 25 22 22 24 25 26 27 29 29 29 29 28 27 24 21 20 18 17 18 18 18 17 16 14 12 10 9 7 5 5 5 5 6 7 7 7 7 6 5 5 5 5 6 8 10 11 12 13 14 13 11 9 7 6 5 5 5 5 6 6 7 8 8 7 7 7 7 6 5 4 4 4 4 5 5
12 14 17 21 19 17 19 21 23 27 30 29 26 23 23 25 26 27 29 30 31 30 27 26 26 25 24 23 23 22 21 19 18 16 15 13 10 8 7 6 5 4 3 4 5 6 7 7 7 5 4 5 4 4 6 8 9 10 11 12 13 13 12 10 8 7 6 6 6 6 6 7 7 8 8 8 8 8 8 7 6 5 5 4 5 6 6
10 9 11 17 20 19 18 20 24 28 31 31 30 28 27 27 26 26 26 27 28 26 24 22 23 25 25 25 24 23 21 19 17 16 14 12 9 8 8 6 4 2 2 4 5 6 6 6 6 4 3 4 4 4 6 7 9 9 10 11 12 13 13 11 9 8 7 6 6 6 7 7 7 8 8 8 8 8 8 7 5 5 5 5 5 6 6
13 11 11 14 18 19 19 18 20 23 25 27 27 27 28 26 23 20 20 20 21 20 19 19 20 22 23 24 23 22 19 18 17 16 14 10 8 9 8 5 2 1 3 4 5 5 6 6 5 3 3 3 3 4 6 7 8 9 10 10 11 13 13 13 12 9 7 6 5 6 6 7 7 7 8 7 7 7 7 7 5 5 5 5 6 7 7
17 16 16 16 18 19 18 16 16 16 17 19 22 24 24 22 19 17 17 16 15 14 12 13 14 16 18 19 18 17 17 17 17 15 11 9 9 9 6 3 2 1 3 4 5 5 5 5 5 3 2 3 2 4 6 7 8 9 9 10 10 11 12 13 13 11 9 7 5 5 6 6 7 7 8 8 8 8 8 8 7 6 5 5 5 6 7
22 20 19 18 18 19 18 16 14 13 13 15 17 18 19 18 17 16 14 13 12 10 9 10 11 13 15 16 16 16 16 15 14 12 11 12 11 8 6 4 3 2 3 5 5 5 5 5 4 3 3 2 2 4 5 6 7 8 9 10 10 10 11 11 12 12 11 10 8 7 7 7 8 8 9 9 10 9 9 9 8 8 8 7 6 6 7
23 22 20 18 18 18 18 17 17 16 15 14 14 15 14 14 14 13 11 11 10 10 10 11 12 15 16 16 17 16 14 13 14 13 14 14 12 9 7 5 4 3 4 5 5 5 5 4 3 3 2 1 2 3 5 6 6 8 9 10 10 10 10 11 11 11 11 11 10 10 9 9 10 10 10 11 10 10 10 10 10 10 10 9 8 7 7
24 24 22 21 21 22 22 22 22 21 17 13 12 13 11 11 11 12 12 12 11 11 11 12 14 15 16 17 16 12 11 14 16 15 15 15 13 10 8 7 6 5 4 4 4 4 4 3 2 2 1 0 1 2 4 5 6 7 8 9 9 10 10 10 10 10 10 10 10 10 10 10 10 10 11 11 10 10 10 10 10 10 10 10 10 10 9
27 26 27 25 24 23 22 23 22 19 15 10 8 10 10 12 12 13 13 13 13 12 11 12 13 14 15 15 12 9 11 15 15 15 16 16 13 11 10 9 8 6 4 4 4 3 3 3 2 1 0 0 1 2 3 4 5 6 7 8 8 9 9 9 9 9 9 10 10 10 10 10 11 11 11 11 11 11 11 11 11 11 11 11 12 11 11
30 30 30 27 24 21 20 20 18 15 12 7 4 6 9 12 13 13 13 13 13 12 11 11 12 12 12 11 9 10 14 16 16 16 17 15 13 12 12 11 9 6 5 4 4 3 3 2 1 1 0 1 2 2 3 4 4 6 6 7 7 8 8 8 8 9 9 10 10 11 12 12 12 12 12 12 13 13 13 14 15 15 15 15 14 14 13
29 31 30 27 24 22 19 17 15 13 12 9 5 7 10 12 13 13 13 12 12 11 11 11 11 10 9 10 11 13 16 18 18 17 16 14 13 13 12 10 8 7 6 5 4 3 2 2 1 1 0 1 2 3 3 3 4 4 5 5 6 7 7 8 8 9 9 10 11 12 13 13 13 13 13 14 14 15 16 16 16 16 16 16 17 16 16
26 26 25 25 25 23 19 16 13 12 12 10 7 8 12 14 14 13 13 12 11 10 9 10 10 10 10 11 14 16 18 19 19 17 15 15 14 13 11 10 8 6 6 5 4 3 3 2 1 1 1 1 2 3 3 2 2 3 3 4 5 5 6 7 8 9 10 10 11 12 13 14 15 15 16 16 16 16 16 15 14 14 13 14 14 15 15
26 25 23 23 24 23 21 17 14 13 12 10 8 9 12 15 15 14 14 13 12 10 10 10 11 11 12 14 17 19 20 20 18 16 16 16 14 13 12 10 8 7 7 6 5 4 3 2 2 2 1 0 1 2 3 2 1 2 2 2 3 4 4 5 7 8 8 9 10 11 12 14 15 16 17 18 18 17 16 15 14 13 12 12 12 12 13
26 26 24 23 24 24 23 20 17 15 14 12 10 11 14 17 17 16 15 14 12 12 12 12 12 14 16 17 19 21 21 20 18 17 17 16 15 14 12 10 9 9 8 7 6 5 4 3 3 3 2 1 1 1 2 2 1 0 1 1 2 2 2 3 5 5 6 7 8 9 11 13 14 15 16 17 18 18 18 17 16 15 14 13 13 13 13
23 24 24 24 23 24 24 22 19 17 17 15 13 13 17 20 20 19 17 15 13 12 14 14 14 17 19 19 20 22 22 20 19 18 18 17 15 14 12 11 11 10 9 8 7 7 6 5 4 4 4 3 2 2 2 1 1 1 1 1 1 1 1 1 1 2 3 5 7 8 10 12 13 15 16 17 18 19 19 19 18 18 16 15 14 14 15
21 21 22 23 23 23 23 23 20 18 19 19 17 16 19 23 23 21 19 17 14 15 16 16 16 18 20 20 21 21 21 20 19 19 18 17 15 14 13 12 12 11 10 9 9 8 7 6 5 5 5 4 4 4 3 3 2 2 2 2 2 2 2 2 2 3 4 6 8 10 11 13 14 16 17 18 19 19 19 20 20 19 19 18 17 17 17
19 19 20 20 21 22 23 23 22 19 19 21 19 17 21 25 24 22 20 17 16 17 19 19 18 19 20 21 21 20 19 19 19 18 17 16 15 14 13 13 13 12 11 10 10 9 8 8 7 6 6 5 5 5 5 5 4 4 3 3 3 4 4 5 6 6 7 9 10 12 13 15 16 17 18 19 19 20 20 20 20 20 20 20 19 19 18
19 19 19 19 20 22 23 24 24 22 21 21 20 19 23 26 25 22 20 19 19 20 21 21 21 21 20 20 19 19 19 19 18 18 17 15 14 13 13 13 12 12 12 12 11 10 10 9 8 8 7 7 7 7 7 7 6 6 5 5 5 5 6 7 8 9 10 12 13 14 15 16 17 17 18 19 19 20 20 20 20 19 20 20 20 20 20
19 19 20 20 21 22 23 24 25 24 22 22 21 22 25 27 26 24 22 21 22 22 21 21 22 22 22 20 20 19 19 18 18 17 16 15 14 14 13 13 13 13 13 12 12 11 11 10 10 9 9 8 8 8 8 8 8 8 8 7 7 7 8 9 10 11 12 14 15 16 17 18 18 19 19 19 19 19 20 20 20 20 20 20 21 21 21
19 19 20 21 22 22 22 23 24 24 23 23 24 25 27 29 28 25 24 25 25 24 22 22 22 22 21 20 20 19 19 18 18 17 17 16 15 15 15 14 13 13 13 12 12 12 12 11 11 11 10 10 9 9 9 9 9 9 9 9 9 9 10 11 12 13 14 15 16 17 18 18 19 20 20 19 19 19 20 20 21 21 22 22 22 22 22
19 20 20 21 21 21 20 21 23 24 24 24 26 27 29 30 30 28 27 28 27 26 24 23 23 22 21 20 20 19 19 19 19 19 18 17 17 16 16 15 15 14 13 12 12 12 12 12 12 12 12 11 11 10 10 10 10 10 10 10 10 11 11 12 13 14 15 16 16 17 17 18 18 19 19 19 19 19 20 21 21 22 22 22 22 23 23
21 22 21 20 19 19 18 19 22 25 25 26 28 29 30 32 32 30 30 31 30 28 27 25 24 23 22 21 20 20 20 20 19 19 18 17 16 15 15 15 15 14 13 13 13 13 13 13 13 13 13 12 12 11 11 11 11 11 11 11 11 12 12 13 14 14 15 16 17 17 17 17 18 18 18 19 19 19 20 21 22 22 22 22 22 22 23
23 24 22 20 18 17 17 19 23 26 27 28 29 29 29 31 31 31 32 34 32 30 28 27 25 24 23 22 21 20 20 19 18 17 16 15 14 14 14 14 14 14 13 13 14 13 13 13 13 13 13 13 13 12 12 12 11 11 12 12 12 13 13 14 14 15 15 16 16 17 17 17 18 18 19 19 20 21 21 22 22 22 22 22 22 22 22
25 25 23 21 18 17 17 20 24 28 29 28 28 29 30 31 31 32 34 34 32 30 28 27 26 25 23 22 20 19 18 17 17 16 15 15 14 13 13 13 13 13 13 13 14 14 14 14 14 14 14 14 14 13 13 12 12 12 12 13 13 14 14 15 15 15 16 16 16 17 17 17 18 19 19 20 21 22 22 22 22 22 22 22 22 22 22
26 25 24 21 20 19 20 22 25 29 30 29 28 29 31 32 33 34 35 33 30 29 29 28 27 25 23 21 19 18 17 16 16 15 15 15 14 14 14 14 14 13 14 14 14 14 15 15 15 15 15 15 14 14 13 13 12 12 13 13 14 14 15 15 15 15 16 16 16 17 17 18 19 19 20 21 21 22 22 22 22 21 21 21 22 22 23
25 26 25 23 22 22 23 24 26 29 31 30 28 29 31 33 35 37 37 34 31 31 31 29 27 25 22 20 19 18 18 17 17 16 15 15 15 15 15 14 14 14 14 14 15 15 15 15 15 15 15 14 14 13 13 12 13 13 13 14 14 15 15 15 15 15 16 16 16 17 17 18 19 20 21 21 21 21 22 22 21 21 21 21 22 23 23
26 27 26 25 24 24 24 25 27 30 32 32 30 31 34 36 36 38 39 37 34 32 31 29 26 24 22 21 20 20 19 19 18 17 16 16 16 16 16 15 15 14 14 14 15 14 14 14 14 15 14 14 13 13 13 13 13 13 14 15 15 15 16 16 16 16 17 17 17 18 18 19 20 21 21 21 21 21 21 21 21 21 21 22 22 23 24
27 27 27 25 25 25 25 25 28 32 36 35 32 33 38 40 37 37 39 38 36 34 32 29 27 25 23 22 21 20 20 19 18 17 17 17 17 17 16 15 15 15 14 14 14 14 14 13 13 14 14 14 13 13 13 14 14 15 15 16 16 16 16 17 17 17 18 18 18 19 20 20 21 21 21 21 21 21 21 22 22 22 22 23 23 23 23
28 28 27 25 23 23 23 24 28 34 39 37 33 34 40 41 37 36 37 37 36 34 32 29 27 25 23 22 21 20 19 19 18 18 18 18 18 17 16 15 15 15 14 13 13 14 14 14 13 13 14 13 13 14 15 15 16 16 16 16 17 17 17 17 18 18 18 19 19 20 20 20 21 21 21 20 21 21 22 22 23 23 23 23 23 23 22
29 29 28 24 20 19 20 23 26 31 37 37 34 35 40 40 36 36 37 35 33 33 30 28 26 24 21 20 20 20 19 19 19 19 19 19 18 17 15 14 14 14 14 13 14 15 15 14 14 14 14 14 14 15 16 17 17 17 17 18 18 18 18 18 18 19 19 19 20 20 21 21 21 21 20 20 21 21 22 23 23 24 23 23 23 22 22
30 29 27 24 19 16 16 19 23 29 35 38 38 39 40 39 38 39 38 35 32 31 30 28 25 23 21 22 22 21 20 20 20 19 19 19 18 16 15 15 14 14 14 15 15 15 15 15 15 15 15 15 16 16 17 18 18 19 19 19 19 19 19 19 19 20 20 20 20 20 20 21 21 21 21 21 21 22 22 22 23 23 23 23 22 21 21
30 29 26 23 20 17 16 18 24 30 34 36 38 40 40 40 41 40 36 32 31 30 28 26 24 23 23 24 23 22 21 21 20 19 19 18 17 16 16 16 15 15 16 16 16 16 16 16 16 16 16 17 17 17 18 19 19 20 20 20 20 20 20 20 20 20 20 20 20 20 20 20 20 21 21 21 21 21 21 21 22 22 22 22 22 21 21
30 29 26 23 21 20 19 20 27 34 37 37 38 39 40 42 42 39 34 33 32 30 26 25 24 25 26 26 24 22 21 20 20 19 18 17 17 16 16 17 17 17 17 18 18 18 18 18 18 18 18 18 19 19 19 19 20 20 21 21 21 21 21 21 21 21 20 20 20 20 19 19 20 20 21 21 21 21 21 21 22 22 21 21 21 21 22
30 28 26 24 23 22 21 19 24 33 40 41 40 40 40 41 40 38 36 35 34 30 27 26 27 28 28 26 24 22 21 20 19 19 18 17 17 17 17 18 18 18 19 19 20 19 20 20 20 20 21 20 20 20 20 21 21 21 21 21 21 21 21 22 22 22 21 20 20 20 19 19 20 20 20 19 20 21 21 22 22 22 21 21 21 21 22
31 29 27 26 25 24 22 18 18 26 36 41 41 40 40 39 38 37 37 37 35 32 30 29 28 28 28 26 22 21 20 20 19 19 18 17 17 17 18 19 19 20 20 21 21 21 21 21 22 22 22 22 21 22 22 22 22 22 22 22 21 21 22 22 22 22 21 21 20 20 19 19 20 20 19 19 20 21 22 22 22 22 21 21 21 22 23
32 31 29 28 27 26 23 19 16 21 30 39 41 40 39 37 36 37 39 39 37 35 32 30 30 29 27 24 21 20 20 20 19 19 19 18 18 18 19 20 20 20 21 21 22 22 22 23 23 23 23 22 22 22 22 22 22 23 23 22 22 22 22 22 22 22 21 21 20 20 19 19 20 20 20 20 21 22 22 22 21 21 21 22 23 23 24
36 34 33 31 30 28 25 22 20 21 27 34 39 40 39 38 38 38 40 40 38 36 34 32 31 30 26 23 20 20 20 20 20 20 20 19 19 20 20 21 21 21 22 22 22 23 23 24 24 24 24 23 23 23 22 22 23 23 23 23 23 23 22 22 22 22 21 20 20 20 20 20 20 21 21 22 22 22 22 22 21 21 22 23 23 24 25
38 37 34 34 33 31 28 26 25 25 27 31 36 40 42 41 40 39 40 40 38 36 35 33 30 27 23 21 19 19 19 20 20 21 21 20 20 21 21 21 22 22 23 23 23 23 23 24 25 25 24 23 23 23 23 23 23 23 23 23 23 23 23 22 22 22 21 21 21 21 21 21 21 22 22 23 23 22 22 22 22 22 23 23 24 24 25
42 40 36 34 35 34 31 29 29 28 27 29 33 38 42 43 41 41 41 40 36 32 31 29 27 23 20 19 18 18 19 19 20 21 21 21 21 21 22 22 22 22 23 23 22 22 23 24 24 24 24 23 22 22 23 23 23 23 23 24 24 24 23 23 23 22 22 22 21 21 21 22 22 23 23 24 23 23 22 22 23 23 23 24 24 25 26
44 44 38 35 35 35 33 33 33 31 29 29 31 36 41 44 44 44 43 40 35 30 28 26 23 20 19 18 18 18 18 20 21 22 22 22 22 22 22 22 22 22 22 21 21 21 23 24 24 24 24 23 23 23 23 23 23 23 23 24 24 24 24 24 24 24 23 23 22 22 22 23 23 23 24 25 24 24 23 23 23 24 24 25 26 26 27
39 42 40 37 36 35 35 35 35 33 31 31 31 32 34 37 39 38 37 34 30 29 28 26 22 20 20 20 20 19 19 20 22 23 23 23 23 22 22 22 22 22 21 20 20 22 23 24 24 24 24 24 24 24 24 24 24 23 24 24 25 25 25 25 25 25 24 24 24 23 23 24 24 25 25 26 26 25 24 24 25 25 26 26 27 28 29
34 38 38 36 35 34 35 35 35 34 32 31 30 30 33 34 35 34 33 30 29 29 28 26 24 24 23 21 21 20 21 22 23 24 24 24 23 22 22 22 22 21 21 20 21 23 25 25 25 25 25 24 24 25 25 24 24 24 24 25 26 26 26 25 25 25 25 25 24 24 24 25 25 26 26 27 26 26 25 26 26 27 27 28 29 30 31
35 36 37 36 35 34 34 34 34 33 32 29 27 28 30 31 31 31 31 30 29 30 28 26 25 25 25 23 22 22 23 24 25 25 24 23 22 22 22 23 23 22 21 21 22 24 26 26 26 26 25 25 26 26 25 24 24 23 24 25 26 27 27 26 26 25 25 25 25 25 25 26 26 27 27 27 27 26 27 28 28 29 29 30 31 32 33
Wind_Direction
196 187 183 184 189 191 180 172 186 211 220 227 227 231 248 256 256 260 269 276 273 275 294 300 304 312 315 307 296 292 298 310 318 322 328 331 325 319 317 312 314 324 332 348 358 357 354 352 347 348 358 4 3 1 1 2 3 2 359 356 355 356 357 357 356 356 3 12 14 19 25 30 34 41 55 71 80 85 86 84 87 86 84 93 99 68 44
198 191 186 186 196 201 191 199 227 214 208 222 222 225 239 243 242 249 260 270 274 279 291 295 300 318 330 320 306 297 302 310 313 315 321 323 320 318 312 307 310 316 329 353 359 353 350 348 341 342 351 358 360 360 1 3 4 1 358 355 355 356 0 6 9 9 17 25 30 37 46 51 55 60 69 74 74 75 76 75 74 69 69 76 75 50 31
200 190 190 193 205 212 207 218 238 214 200 210 225 229 235 237 245 259 261 268 279 284 289 293 298 317 333 328 318 308 304 305 305 310 316 318 318 315 309 308 304 303 326 357 357 348 346 343 338 339 344 350 357 360 1 5 6 3 359 358 357 360 8 21 25 25 32 38 42 49 58 64 67 70 74 75 73 69 65 63 57 49 46 45 42 35 15
211 195 198 203 210 222 226 224 221 210 204 211 220 224 230 237 252 268 264 265 275 282 286 289 291 299 310 313 309 304 300 299 303 308 309 313 316 311 307 307 299 299 321 349 350 345 343 339 336 337 340 347 355 359 2 5 8 6 3 4 7 12 25 37 35 35 44 49 52 57 64 70 72 73 72 70 66 60 54 50 44 42 40 30 26 21 357
221 204 208 213 215 224 234 229 218 213 214 216 219 220 223 232 249 263 266 265 267 272 278 278 278 284 291 294 296 299 301 305 307 303 300 307 314 309 304 302 293 293 309 330 342 344 340 336 336 336 339 348 356 360 2 5 10 10 7 10 20 29 41 47 40 39 48 56 61 64 68 70 69 68 66 62 57 50 43 40 36 40 40 28 20 8 345
221 212 212 216 216 220 230 232 224 221 223 222 223 226 228 235 248 260 269 271 269 271 275 276 278 281 279 277 285 291 294 302 305 298 294 304 310 305 298 292 281 280 293 315 336 340 334 334 336 336 342 353 360 2 1 3 12 16 12 16 29 40 50 55 50 45 48 57 65 67 66 65 62 59 55 51 49 43 39 35 29 30 34 29 16 356 339
213 207 205 209 215 221 232 234 228 225 229 228 227 234 242 249 258 265 270 273 275 278 281 284 286 283 276 277 288 289 283 286 294 294 296 302 302 299 294 285 271 270 286 309 330 331 329 333 338 340 347 359 5 3 358 1 13 20 19 22 32 42 53 60 60 56 53 55 60 62 61 59 55 48 41 38 38 38 38 37 30 25 28 26 6 345 337
204 200 200 210 225 232 236 236 231 228 230 232 234 242 250 255 264 271 271 272 276 280 284 286 286 285 282 282 289 289 280 279 285 291 297 299 295 291 288 279 260 265 284 305 322 324 327 334 341 344 352 5 7 1 358 5 16 23 26 30 35 42 51 58 61 60 59 59 58 57 58 55 46 37 31 28 28 27 27 30 32 28 26 21 5 351 345
200 196 202 218 233 242 242 239 238 235 235 237 240 243 247 249 254 261 263 265 269 275 281 281 281 287 287 280 284 292 287 281 282 287 292 293 289 283 276 267 258 262 279 298 310 317 326 337 342 344 355 9 9 1 0 8 20 27 31 35 40 45 53 59 62 61 60 61 62 63 63 54 43 35 31 30 30 26 22 23 25 26 24 16 2 355 349
207 199 205 215 228 248 252 246 244 242 242 246 248 249 251 250 250 252 256 261 267 274 277 274 275 282 281 269 273 289 292 282 277 283 289 291 288 278 264 258 258 261 275 289 299 312 326 335 338 339 357 10 5 5 10 14 22 31 35 38 42 48 56 63 68 69 66 64 64 65 61 50 42 38 35 33 31 28 24 22 18 15 12 7 359 357 354
218 208 212 216 221 239 251 250 247 242 242 247 251 255 258 259 260 263 265 268 272 274 274 272 273 278 277 268 269 279 282 275 272 279 287 288 282 269 254 245 245 251 274 287 297 311 323 331 331 334 360 4 353 8 24 24 27 34 38 41 45 50 55 62 68 69 68 66 64 59 50 41 39 38 35 32 28 25 22 20 17 10 4 7 3 357 352
209 203 221 229 230 235 242 245 246 245 244 247 251 255 258 260 264 269 268 268 268 265 264 267 270 272 273 269 268 271 271 267 268 274 282 284 269 247 236 234 229 241 286 288 296 308 318 326 325 329 355 351 343 9 31 33 35 39 41 43 47 50 52 57 62 64 64 63 59 51 41 36 37 37 33 30 26 23 20 17 16 9 4 8 4 352 348
202 200 215 229 232 234 237 241 244 247 249 251 251 253 253 252 256 262 262 260 258 254 254 259 265 268 268 267 267 266 264 262 265 270 275 270 240 217 217 222 216 292 295 284 292 305 313 319 317 319 336 333 336 17 33 36 39 42 44 45 48 49 49 52 57 62 63 59 52 43 35 33 33 32 29 26 22 22 20 18 17 10 3 5 1 351 346
214 218 223 227 233 238 241 244 244 245 248 250 249 247 245 244 248 253 255 252 247 244 246 255 265 271 271 269 266 260 256 258 264 264 256 234 215 205 199 193 194 258 279 280 289 297 303 310 308 300 301 309 336 26 40 43 44 47 49 50 52 52 51 51 54 59 62 59 52 41 30 25 24 21 19 17 14 13 14 13 13 9 1 358 357 350 345
223 228 229 231 237 240 240 242 246 252 257 258 254 248 243 241 242 244 246 242 235 230 234 245 258 265 264 262 257 254 255 260 259 248 226 212 209 204 190 182 191 234 272 283 286 289 294 298 296 284 274 289 339 29 46 51 52 52 53 55 57 57 55 54 53 56 58 57 55 49 38 30 26 21 19 17 13 10 7 5 5 6 360 355 354 349 344
225 231 234 237 244 248 251 258 266 273 272 263 256 250 241 232 231 233 235 237 233 226 226 233 241 246 247 247 249 252 257 254 242 223 207 203 204 202 194 192 203 229 261 276 277 279 284 290 290 281 267 278 346 27 47 56 58 55 53 55 58 58 59 58 56 55 56 56 54 51 45 39 34 30 28 24 19 13 8 3 3 4 358 352 352 352 346
225 229 232 235 243 252 259 264 268 273 276 265 251 247 230 211 216 227 229 234 236 230 229 234 237 239 241 243 246 247 244 239 226 204 193 198 200 198 197 203 213 226 248 271 273 271 278 286 291 285 270 261 3 33 52 60 61 57 53 53 55 56 58 59 58 56 56 55 54 50 45 40 36 32 29 25 20 15 8 4 5 4 357 351 352 354 349
226 229 231 232 239 248 256 261 264 270 276 265 242 236 219 200 209 225 230 234 238 233 230 232 232 234 237 239 238 226 219 222 211 192 191 199 198 197 203 208 211 218 242 275 287 280 277 290 309 310 288 148 112 68 66 67 64 57 52 52 53 55 57 57 57 56 53 52 52 50 46 40 35 31 26 21 17 14 7 3 5 4 359 354 352 352 347
225 230 232 234 237 243 251 257 260 267 277 274 241 230 217 200 203 219 228 236 239 232 224 222 222 226 231 228 218 205 204 206 198 192 197 200 199 204 211 210 207 209 227 260 286 291 281 292 323 339 343 145 132 102 84 77 65 54 49 49 50 54 58 59 59 58 55 53 52 50 48 44 37 31 25 18 14 12 7 4 3 1 357 353 352 350 347
229 232 233 234 238 243 246 250 256 266 278 284 271 241 224 210 208 215 224 234 239 233 224 218 215 219 220 210 202 201 200 198 195 196 200 202 205 213 218 215 211 211 221 244 268 286 294 306 324 320 272 141 133 122 106 86 67 53 45 43 46 51 58 65 68 67 62 58 54 50 47 43 37 31 25 18 14 10 6 3 1 356 352 348 347 346 343
235 237 237 235 237 241 242 245 256 267 273 277 272 247 231 224 222 220 221 229 237 231 219 214 215 214 205 197 200 203 199 196 197 200 204 208 212 217 223 226 226 224 231 243 257 273 292 309 311 293 265 140 137 139 132 104 70 52 37 32 38 48 60 71 77 76 69 61 54 47 40 36 31 25 20 16 11 7 4 1 356 350 346 343 340 336 333
238 241 241 237 237 240 243 247 257 263 261 259 258 247 234 227 225 222 221 228 232 221 209 211 216 214 203 197 201 203 200 197 199 202 207 213 217 219 223 230 238 244 250 254 260 269 282 299 304 290 280 241 149 152 151 137 87 47 23 17 27 45 67 80 82 78 68 57 47 38 30 25 21 17 13 10 6 2 358 354 349 345 343 341 337 332 328
238 242 243 242 241 242 245 249 253 256 255 252 250 243 232 225 226 225 222 223 221 212 209 212 215 215 209 202 200 201 201 200 201 205 210 215 219 222 226 231 240 248 254 261 268 273 279 293 303 299 297 300 275 199 175 162 141 36 338 343 4 32 77 89 83 71 56 42 32 24 18 14 10 6 3 0 358 355 351 347 345 342 340 338 337 335 332
239 243 245 245 244 244 246 248 249 251 253 253 249 238 226 222 225 227 224 218 211 209 212 212 211 212 209 201 197 199 200 201 205 208 212 215 219 224 231 236 240 244 250 258 266 271 276 285 294 298 299 299 294 286 261 221 205 230 259 264 274 271 140 115 85 46 20 7 359 357 357 356 353 351 350 349 348 346 344 342 340 340 338 336 335 335 333
239 242 244 243 241 239 240 242 244 247 249 248 245 235 223 219 220 220 218 212 205 206 208 204 202 207 205 198 197 198 199 201 207 211 214 217 221 226 233 240 243 243 247 253 260 265 270 276 281 285 289 293 297 297 289 273 256 246 242 243 242 236 229 238 265 295 316 323 328 331 334 336 336 337 338 340 340 339 338 336 336 336 336 335 333 332 332
237 239 242 242 240 237 235 236 238 239 241 242 240 229 218 214 213 211 210 206 202 204 204 197 194 199 199 196 196 197 199 202 208 213 216 220 224 228 234 240 244 246 247 251 254 259 264 269 272 276 281 288 294 295 294 287 278 267 260 251 243 240 244 254 268 282 293 301 308 313 318 322 326 328 331 333 333 332 331 331 331 333 333 332 331 329 329
235 236 238 240 240 237 233 231 231 230 230 233 234 226 216 212 208 205 204 204 203 205 204 198 193 193 194 195 196 198 200 205 209 213 218 221 224 229 234 237 242 246 248 249 251 255 261 265 269 273 278 285 290 294 294 293 290 283 277 272 265 260 260 264 272 282 288 294 300 306 311 316 320 323 326 327 328 327 327 327 327 328 329 328 326 325 326
235 236 237 238 239 238 233 228 226 226 225 227 228 223 216 212 208 203 201 203 204 204 203 200 197 195 193 195 198 200 204 208 211 213 217 219 222 227 232 235 239 243 246 248 251 254 258 263 267 272 277 282 289 293 294 294 294 291 288 285 284 281 278 277 280 285 290 295 300 305 310 313 316 319 321 322 323 323 323 324 324 325 326 326 324 324 324
236 237 236 237 239 239 235 228 225 226 226 225 224 220 215 213 209 204 201 202 201 199 198 198 199 198 195 195 199 203 205 209 212 214 217 221 226 230 234 237 240 242 244 248 251 254 258 263 267 270 275 280 285 290 293 294 293 292 291 291 291 290 289 288 288 290 293 296 300 304 308 312 314 316 317 319 320 320 321 322 322 323 324 324 324 324 324
237 238 238 239 241 241 238 231 227 228 229 227 224 219 215 213 212 208 206 205 201 197 196 197 198 199 199 199 202 205 208 212 216 219 222 226 229 232 234 237 239 242 245 249 253 257 260 264 268 272 275 279 283 288 292 293 293 293 293 293 294 295 295 295 295 296 297 298 301 304 307 310 311 313 314 316 318 319 320 321 321 322 322 323 323 323 323
235 239 241 241 241 241 240 233 228 228 230 229 227 221 215 213 214 214 214 211 203 196 196 198 199 201 202 203 205 208 212 215 218 221 223 225 227 229 233 236 239 242 247 253 258 261 262 264 267 272 276 280 284 287 289 291 294 295 296 297 298 298 299 300 300 301 301 302 304 307 308 309 310 311 313 315 317 318 319 320 321 321 322 323 323 324 322
233 238 240 240 238 238 237 233 229 229 231 232 232 227 218 213 213 214 216 214 206 199 197 198 200 201 202 202 204 207 210 213 216 219 222 224 225 229 233 236 240 244 249 254 259 262 265 267 269 273 277 281 284 287 289 292 294 296 297 299 300 301 301 302 302 302 302 303 305 307 308 310 311 313 315 317 317 318 319 320 321 322 323 324 325 325 325
234 237 238 238 237 235 233 230 228 229 231 234 234 230 222 212 206 209 213 212 205 200 198 198 198 199 198 199 202 206 209 214 217 220 224 227 228 231 234 237 240 245 250 255 260 265 268 272 274 275 277 280 283 286 290 293 295 296 297 299 299 301 301 302 303 303 304 304 305 307 309 310 312 314 316 316 317 318 320 321 322 323 324 324 325 325 325
236 238 237 236 235 235 233 230 228 228 231 233 231 227 222 213 204 204 209 207 198 195 197 198 196 196 195 196 200 206 212 217 220 223 227 232 234 236 239 241 244 248 253 258 263 267 270 273 275 277 279 281 283 286 291 294 296 298 298 298 299 300 300 301 302 303 303 304 305 307 309 310 311 312 313 314 316 318 319 320 321 322 322 323 322 322 323
235 237 236 235 235 236 236 236 233 231 229 228 225 223 221 214 203 200 203 202 195 193 195 196 195 194 195 197 202 209 214 218 222 225 229 234 238 241 244 245 248 251 255 259 262 265 269 273 276 279 281 283 286 289 293 295 297 297 297 297 297 297 297 299 300 300 300 302 304 306 308 308 309 311 313 314 316 318 318 319 320 320 320 320 320 320 321
233 235 236 235 234 236 239 241 241 240 235 229 226 223 218 211 204 201 200 199 196 194 195 195 193 193 197 202 206 211 216 220 223 226 231 236 239 242 244 246 248 251 254 257 261 265 269 274 277 279 281 284 287 291 294 295 296 296 295 294 294 295 295 297 298 298 300 302 304 306 308 308 309 311 313 314 316 317 317 318 318 318 317 317 317 318 319
233 235 236 234 234 240 244 245 248 248 242 235 230 223 212 204 200 197 195 194 194 194 195 195 194 194 199 204 208 213 218 223 225 229 233 238 240 243 245 248 249 251 254 258 262 266 269 272 275 278 281 285 289 291 293 294 294 294 293 292 292 293 294 296 297 298 300 303 306 308 308 309 310 312 313 314 315 316 317 317 316 315 315 314 315 316 317
235 236 237 236 237 245 250 252 253 248 239 232 228 220 209 202 197 193 192 192 194 195 196 196 196 196 199 205 212 217 221 224 227 231 236 239 242 245 247 250 252 255 259 263 266 268 270 272 274 276 279 283 286 288 289 290 290 290 290 291 292 293 293 295 296 298 301 304 307 307 308 309 311 312 312 313 314 314 315 315 315 315 315 315 315 315 316
236 238 239 238 239 246 253 258 254 241 226 219 215 210 206 204 201 195 191 191 193 195 196 196 196 197 202 210 216 220 222 225 229 233 237 240 243 246 249 253 256 260 264 266 267 270 272 274 277 279 281 284 286 286 288 289 290 291 291 292 293 293 294 296 297 299 302 305 307 307 309 310 311 311 311 312 313 313 314 315 315 316 316 316 316 316 317
235 240 241 239 236 238 244 248 243 228 216 210 207 205 205 205 199 190 185 186 190 193 194 194 193 196 206 215 218 220 222 226 230 234 238 242 245 248 251 255 257 260 264 266 267 270 272 274 277 279 281 283 285 286 288 290 291 293 293 294 294 295 295 296 298 300 302 305 306 306 307 308 308 309 310 311 312 313 314 315 316 317 316 317 317 317 318
232 237 240 240 236 230 227 227 226 220 212 207 204 203 202 199 193 187 184 186 189 191 192 193 195 201 210 215 217 219 223 226 230 234 238 242 245 248 252 256 257 261 265 268 270 273 275 276 277 277 278 279 281 283 286 288 290 292 293 294 294 294 295 297 298 299 301 303 303 303 304 305 305 307 308 309 311 313 315 316 316 316 316 316 317 317 318
229 233 238 239 236 230 226 223 221 217 212 205 199 196 195 195 196 194 190 187 187 189 192 195 201 209 214 216 217 219 221 226 230 234 237 242 246 250 254 257 259 262 265 266 268 272 274 275 277 278 278 279 281 283 285 288 290 291 293 292 292 294 295 296 297 298 300 301 302 301 301 302 304 305 307 308 310 313 315 315 315 315 314 314 315 317 318
224 228 233 236 236 235 236 232 221 214 210 205 198 193 193 198 204 205 198 189 185 188 194 200 207 215 218 217 217 219 222 227 231 234 238 243 246 249 254 256 257 260 262 262 264 267 268 270 273 274 275 277 279 281 283 287 289 291 292 291 291 293 293 294 295 297 299 299 300 299 299 301 303 304 306 309 311 313 315 314 313 313 313 313 314 315 317
220 221 224 229 233 236 237 233 217 207 205 203 199 195 196 202 208 211 205 194 186 185 192 201 209 216 218 218 218 220 225 230 233 235 239 243 245 247 251 254 256 258 260 261 263 265 266 267 269 270 272 274 277 279 282 286 288 290 290 290 290 291 292 293 295 296 297 297 297 296 297 300 303 304 306 309 312 313 314 314 313 312 312 311 312 313 315
218 217 217 222 227 230 230 227 216 206 204 202 198 197 200 206 211 212 208 200 190 184 188 199 209 215 218 218 219 223 229 234 236 238 240 242 245 248 250 252 254 257 259 262 265 267 269 271 272 273 275 277 278 280 283 286 288 288 288 288 288 289 291 293 294 295 295 295 295 294 295 298 301 302 304 309 312 314 314 313 312 311 310 311 312 313 314
216 214 212 214 219 224 224 222 219 214 208 205 204 205 208 210 209 207 205 202 195 186 186 195 206 213 215 216 219 226 232 236 239 242 243 244 247 249 251 252 255 258 260 263 266 268 271 272 274 275 277 279 281 282 284 286 287 287 287 287 288 290 292 294 295 294 294 294 292 291 292 295 297 300 303 308 312 313 312 310 309 308 309 309 310 311 312
218 216 212 210 213 215 216 218 221 221 217 214 214 214 213 211 208 206 206 206 200 192 187 191 200 208 212 215 220 227 233 237 241 244 246 247 250 252 253 255 257 259 261 264 266 268 270 271 272 274 276 278 280 282 284 285 286 286 287 288 289 291 293 295 296 295 294 292 290 288 289 292 294 298 303 308 310 310 308 306 306 306 307 307 308 309 310
219 218 215 209 207 207 209 214 219 222 221 219 218 216 215 214 212 208 205 205 202 195 189 189 194 202 211 218 222 227 233 239 243 247 249 250 252 254 255 258 259 260 262 264 267 269 270 270 271 273 276 278 280 282 284 285 286 287 288 290 292 294 295 296 297 295 294 291 288 286 287 290 293 298 303 306 307 306 305 304 305 306 306 306 307 308 309
216 216 214 209 205 204 207 211 215 219 222 222 222 223 223 221 215 210 211 215 216 206 194 189 191 200 210 219 226 231 236 241 245 248 250 251 253 254 256 258 259 260 262 265 267 269 270 271 272 275 277 279 281 283 283 284 285 288 289 291 293 294 296 297 296 295 293 291 288 286 287 289 293 298 302 304 304 303 302 303 304 305 306 306 307 308 309
209 209 210 209 207 206 208 212 214 217 219 222 226 228 224 217 212 213 221 227 222 207 195 191 194 201 210 219 226 232 237 241 245 248 249 250 252 254 256 257 259 261 263 266 268 269 270 272 273 275 277 280 281 282 282 283 286 288 291 292 293 294 295 295 295 294 292 290 289 288 289 291 295 299 302 303 303 302 302 303 304 305 306 306 307 308 309
208 208 211 212 210 209 211 215 217 217 218 222 228 226 218 214 217 222 224 220 212 205 199 196 197 203 210 217 223 230 237 241 244 246 248 249 251 254 256 258 261 263 265 266 268 269 270 271 273 275 277 279 279 279 280 283 285 288 289 290 291 292 293 293 292 291 290 289 288 289 291 293 296 298 301 302 301 301 302 304 305 306 307 307 308 309 309
214 214 215 215 214 213 214 216 218 219 219 222 222 217 212 216 223 224 218 213 210 209 205 201 201 205 209 212 216 224 234 239 241 243 245 247 249 253 256 259 261 263 265 266 268 269 270 271 272 274 276 277 277 277 279 282 285 287 288 288 289 290 290 291 290 289 288 288 288 289 291 293 295 297 299 300 300 300 302 304 306 306 307 308 308 309 309
Height
5900 5903 5905 5906 5908 5909 5909 5908 5908 5909 5910 5911 5913 5914 5915 5915 5915 5916 5916 5915 5915 5915 5916 5917 5916 5915 5915 5914 5914 5915 5915 5914 5912 5911 5910 5909 5907 5906 5904 5903 5902 5901 5901 5899 5899 5898 5898 5897 5895 5894 5893 5893 5891 5889 5887 5884 5882 5879 5877 5874 5872 5870 5867 5866 5864 5863 5862 5860 5858 5857 5855 5855 5853 5852 5852 5852 5852 5852 5853 5853 5852 5852 5853 5853 5853 5853 5853
5899 5902 5904 5906 5906 5907 5906 5905 5904 5905 5907 5909 5911 5912 5913 5913 5913 5914 5914 5914 5914 5915 5916 5916 5915 5915 5914 5914 5914 5914 5914 5912 5911 5910 5910 5908 5907 5905 5904 5903 5902 5901 5900 5899 5898 5898 5898 5897 5895 5894 5894 5893 5891 5889 5887 5884 5881 5879 5876 5873 5871 5869 5866 5865 5864 5863 5862 5860 5859 5857 5856 5855 5854 5854 5853 5853 5853 5853 5854 5854 5854 5853 5853 5853 5853 5853 5853
5896 5900 5902 5903 5904 5904 5903 5902 5902 5903 5905 5907 5908 5910 5911 5911 5911 5912 5912 5912 5913 5913 5914 5915 5915 5914 5913 5913 5914 5914 5913 5912 5911 5910 5909 5908 5906 5905 5903 5902 5901 5901 5900 5898 5897 5897 5897 5896 5895 5894 5894 5893 5891 5889 5886 5884 5881 5879 5876 5873 5871 5868 5866 5865 5864 5863 5862 5861 5859 5858 5857 5856 5856 5855 5855 5855 5855 5855 5855 5855 5855 5854 5853 5853 5853 5853 5853
5895 5898 5899 5900 5901 5900 5899 5899 5901 5902 5903 5905 5906 5907 5908 5908 5909 5909 5910 5910 5911 5912 5913 5914 5914 5913 5913 5913 5913 5913 5912 5911 5910 5909 5908 5906 5905 5904 5903 5902 5901 5900 5899 5897 5897 5897 5896 5895 5895 5895 5894 5893 5891 5889 5886 5883 5881 5879 5876 5873 5871 5868 5866 5865 5864 5863 5862 5861 5860 5860 5859 5858 5858 5857 5857 5857 5856 5856 5856 5856 5855 5854 5854 5853 5853 5853 5853
5893 5896 5896 5896 5898 5897 5896 5897 5900 5900 5901 5903 5903 5904 5905 5906 5907 5907 5908 5909 5910 5910 5911 5912 5913 5913 5912 5912 5912 5912 5911 5910 5909 5908 5906 5905 5904 5903 5902 5901 5900 5900 5899 5897 5897 5896 5895 5895 5895 5895 5894 5893 5891 5888 5885 5883 5881 5879 5876 5874 5871 5869 5867 5865 5865 5864 5863 5862 5861 5861 5860 5860 5859 5858 5858 5857 5857 5857 5857 5856 5855 5855 5854 5854 5854 5853 5853
5891 5892 5893 5893 5895 5895 5894 5895 5897 5899 5899 5901 5901 5902 5903 5904 5905 5906 5907 5907 5908 5909 5909 5910 5911 5911 5911 5911 5911 5911 5910 5908 5907 5906 5905 5904 5903 5902 5900 5900 5899 5899 5899 5897 5896 5895 5895 5895 5895 5895 5894 5893 5891 5888 5885 5882 5881 5879 5876 5874 5872 5869 5867 5866 5866 5865 5864 5863 5862 5862 5861 5861 5860 5859 5859 5858 5858 5857 5857 5856 5856 5855 5855 5854 5854 5854 5853
5888 5890 5891 5892 5893 5893 5892 5892 5895 5897 5898 5899 5900 5900 5901 5902 5903 5904 5905 5906 5906 5906 5907 5908 5908 5908 5908 5909 5909 5909 5908 5906 5905 5904 5904 5903 5901 5900 5899 5898 5898 5898 5898 5897 5896 5895 5895 5895 5895 5894 5894 5893 5892 5889 5885 5882 5881 5879 5876 5874 5872 5870 5868 5867 5867 5866 5865 5864 5864 5863 5862 5861 5861 5860 5860 5859 5858 5858 5857 5857 5856 5855 5855 5854 5854 5854 5853
5887 5889 5890 5890 5891 5891 5890 5890 5892 5895 5897 5898 5899 5900 5900 5901 5901 5902 5902 5903 5904 5904 5904 5905 5905 5905 5905 5906 5907 5906 5905 5904 5903 5903 5902 5901 5900 5899 5898 5897 5897 5897 5897 5897 5895 5895 5895 5895 5894 5894 5894 5893 5892 5889 5885 5883 5881 5879 5877 5874 5872 5870 5868 5867 5867 5867 5866 5865 5865 5864 5863 5862 5862 5861 5860 5860 5859 5858 5857 5857 5856 5855 5855 5855 5854 5854 5853
5885 5887 5888 5888 5889 5889 5889 5889 5890 5892 5894 5895 5897 5897 5898 5899 5900 5900 5901 5902 5902 5903 5903 5903 5903 5903 5903 5904 5904 5904 5903 5902 5901 5901 5901 5900 5899 5898 5897 5897 5896 5896 5896 5896 5895 5895 5894 5894 5894 5893 5893 5893 5892 5889 5886 5883 5881 5879 5877 5874 5872 5870 5869 5868 5868 5867 5867 5866 5865 5865 5864 5863 5863 5862 5861 5860 5860 5859 5858 5857 5856 5856 5855 5855 5854 5854 5853
5883 5884 5886 5886 5887 5887 5887 5888 5889 5890 5891 5892 5893 5895 5895 5896 5898 5899 5900 5900 5901 5901 5901 5901 5901 5901 5901 5902 5902 5903 5902 5901 5900 5900 5899 5898 5897 5896 5896 5896 5896 5896 5895 5895 5894 5894 5894 5893 5893 5893 5893 5893 5891 5889 5886 5883 5881 5879 5877 5875 5873 5871 5869 5869 5868 5868 5867 5867 5866 5865 5865 5864 5863 5862 5861 5860 5860 5859 5858 5857 5857 5856 5856 5855 5854 5854 5853
5881 5883 5884 5885 5885 5885 5885 5885 5887 5888 5889 5889 5890 5891 5892 5893 5894 5896 5897 5898 5898 5898 5899 5899 5899 5899 5899 5899 5900 5901 5900 5899 5899 5898 5897 5896 5896 5895 5895 5895 5895 5895 5895 5894 5894 5894 5893 5893 5892 5892 5892 5892 5891 5889 5886 5883 5881 5879 5877 5875 5873 5871 5870 5869 5868 5868 5867 5867 5866 5865 5865 5864 5863 5862 5861 5861 5860 5859 5858 5858 5857 5857 5856 5856 5855 5854 5853
5880 5882 5882 5882 5883 5883 5884 5884 5884 5885 5885 5886 5888 5889 5889 5890 5892 5893 5893 5894 5894 5894 5896 5896 5896 5896 5896 5897 5898 5899 5898 5898 5898 5897 5896 5895 5895 5895 5895 5895 5895 5894 5894 5894 5894 5893 5892 5892 5892 5892 5892 5891 5890 5888 5886 5883 5881 5879 5877 5876 5874 5872 5870 5869 5868 5868 5867 5867 5866 5866 5865 5864 5864 5863 5862 5861 5860 5860 5859 5858 5857 5857 5856 5856 5855 5854 5853
5879 5880 5880 5880 5880 5881 5883 5884 5884 5883 5883 5884 5885 5886 5887 5888 5890 5890 5890 5890 5890 5891 5892 5893 5893 5893 5893 5894 5895 5896 5896 5896 5896 5895 5894 5894 5894 5894 5895 5894 5894 5893 5893 5894 5893 5893 5892 5892 5891 5891 5891 5891 5890 5888 5885 5883 5881 5879 5878 5876 5874 5872 5871 5870 5869 5868 5868 5867 5867 5866 5865 5865 5864 5863 5863 5862 5861 5861 5860 5859 5858 5857 5856 5855 5854 5853 5852
5878 5878 5878 5878 5879 5880 5881 5883 5883 5883 5883 5883 5883 5883 5884 5886 5887 5887 5887 5887 5887 5888 5889 5890 5890 5890 5891 5891 5893 5893 5894 5894 5894 5894 5893 5893 5894 5894 5894 5894 5893 5893 5893 5893 5893 5892 5892 5891 5891 5891 5890 5890 5888 5887 5885 5883 5881 5880 5878 5877 5875 5873 5872 5871 5870 5869 5869 5868 5868 5867 5866 5866 5865 5864 5863 5863 5862 5861 5860 5859 5858 5857 5856 5855 5854 5853 5852
5875 5876 5876 5877 5877 5878 5880 5881 5881 5881 5882 5882 5882 5882 5883 5884 5884 5884 5884 5884 5884 5885 5886 5887 5887 5888 5888 5889 5890 5891 5892 5893 5892 5892 5892 5892 5893 5893 5894 5894 5893 5893 5893 5893 5892 5892 5892 5891 5891 5890 5890 5889 5887 5885 5884 5883 5881 5880 5879 5877 5876 5874 5873 5872 5871 5870 5870 5869 5868 5868 5867 5866 5866 5865 5864 5863 5862 5861 5860 5859 5858 5857 5856 5855 5854 5852 5851
5873 5874 5874 5875 5875 5876 5878 5879 5879 5880 5880 5880 5881 5881 5881 5881 5881 5881 5881 5881 5882 5883 5884 5885 5885 5886 5886 5887 5888 5889 5890 5891 5890 5890 5890 5891 5892 5892 5893 5893 5893 5893 5893 5893 5892 5892 5892 5891 5890 5889 5889 5887 5886 5884 5883 5882 5881 5880 5879 5878 5876 5875 5874 5873 5872 5871 5871 5870 5869 5869 5868 5867 5866 5865 5864 5863 5862 5861 5860 5859 5858 5856 5855 5854 5853 5852 5850
5871 5871 5872 5874 5874 5875 5876 5876 5877 5877 5878 5878 5880 5880 5879 5879 5879 5879 5879 5880 5880 5881 5882 5883 5884 5884 5885 5886 5887 5888 5889 5888 5888 5889 5889 5890 5891 5891 5892 5892 5893 5893 5893 5892 5892 5892 5891 5890 5890 5889 5887 5886 5885 5884 5882 5882 5881 5880 5879 5878 5877 5875 5874 5873 5873 5872 5871 5870 5870 5869 5868 5867 5867 5866 5865 5864 5863 5862 5860 5859 5858 5856 5855 5853 5852 5851 5849
5869 5869 5870 5872 5873 5874 5874 5875 5875 5876 5876 5877 5878 5879 5878 5876 5876 5877 5878 5878 5878 5879 5881 5881 5882 5883 5884 5884 5886 5887 5887 5886 5887 5888 5889 5889 5890 5890 5891 5892 5892 5892 5892 5891 5891 5891 5890 5889 5888 5887 5886 5885 5884 5883 5882 5881 5880 5880 5879 5878 5877 5875 5874 5873 5873 5872 5871 5871 5870 5869 5868 5868 5867 5866 5865 5864 5863 5862 5860 5859 5857 5856 5854 5853 5851 5850 5848
5866 5866 5867 5869 5871 5872 5873 5873 5874 5874 5875 5875 5876 5877 5876 5875 5875 5876 5876 5876 5877 5878 5880 5880 5880 5881 5882 5883 5884 5885 5885 5885 5886 5888 5888 5889 5889 5889 5890 5891 5892 5891 5891 5890 5890 5889 5889 5888 5887 5886 5885 5885 5884 5883 5882 5881 5880 5879 5879 5878 5877 5876 5875 5874 5873 5872 5871 5871 5870 5869 5869 5868 5867 5866 5865 5863 5862 5861 5860 5858 5856 5854 5853 5852 5850 5849 5848
5863 5863 5865 5867 5869 5870 5871 5872 5872 5873 5874 5874 5875 5875 5875 5875 5875 5875 5875 5876 5876 5877 5878 5879 5879 5880 5882 5882 5883 5883 5884 5885 5886 5887 5888 5888 5888 5889 5889 5890 5890 5890 5890 5889 5889 5888 5888 5887 5886 5885 5885 5884 5883 5882 5881 5880 5880 5879 5878 5878 5877 5876 5875 5874 5873 5872 5871 5871 5870 5869 5869 5868 5867 5866 5865 5864 5862 5860 5859 5857 5855 5854 5852 5851 5849 5848 5847
5859 5861 5863 5865 5866 5867 5868 5869 5870 5871 5871 5873 5873 5873 5873 5874 5874 5874 5874 5874 5875 5876 5877 5878 5878 5879 5881 5881 5881 5882 5883 5884 5885 5886 5887 5887 5888 5888 5888 5888 5888 5888 5888 5888 5888 5887 5887 5886 5885 5884 5884 5883 5882 5882 5881 5880 5879 5879 5878 5877 5877 5876 5875 5874 5873 5872 5872 5871 5870 5869 5868 5868 5867 5866 5864 5863 5862 5860 5859 5857 5856 5855 5853 5852 5850 5848 5847
5856 5858 5860 5862 5863 5864 5865 5867 5868 5868 5869 5871 5872 5872 5872 5872 5872 5873 5873 5873 5873 5875 5876 5877 5878 5879 5879 5880 5880 5881 5882 5883 5884 5885 5886 5887 5887 5887 5887 5887 5887 5887 5887 5887 5887 5886 5885 5885 5884 5884 5883 5882 5882 5881 5880 5880 5879 5878 5878 5877 5876 5875 5874 5874 5873 5872 5871 5871 5870 5869 5868 5867 5866 5865 5864 5863 5861 5860 5859 5858 5857 5855 5854 5852 5851 5849 5847
5853 5855 5857 5859 5860 5861 5862 5864 5866 5866 5867 5869 5870 5871 5871 5871 5871 5871 5871 5872 5872 5874 5876 5877 5877 5877 5877 5878 5879 5880 5881 5882 5883 5884 5885 5885 5886 5886 5886 5886 5886 5886 5885 5885 5885 5885 5884 5883 5883 5883 5882 5881 5881 5880 5880 5879 5878 5878 5877 5877 5876 5875 5874 5873 5873 5872 5871 5871 5870 5869 5868 5867 5866 5865 5864 5863 5862 5860 5859 5857 5856 5855 5853 5852 5850 5848 5847
5850 5852 5853 5855 5857 5858 5859 5861 5863 5864 5865 5866 5867 5869 5869 5869 5869 5870 5870 5871 5872 5873 5875 5876 5876 5876 5876 5877 5878 5879 5880 5881 5882 5883 5884 5884 5884 5885 5885 5885 5885 5885 5884 5884 5884 5883 5883 5882 5882 5881 5881 5880 5880 5879 5879 5878 5878 5877 5877 5876 5875 5874 5874 5873 5872 5872 5871 5871 5870 5869 5868 5867 5866 5865 5864 5863 5861 5860 5858 5856 5854 5853 5851 5850 5849 5847 5845
5848 5849 5850 5851 5852 5853 5855 5856 5859 5861 5862 5862 5864 5866 5866 5867 5867 5868 5869 5870 5871 5873 5874 5874 5875 5875 5876 5877 5877 5878 5879 5881 5882 5882 5883 5883 5883 5883 5883 5883 5883 5883 5883 5883 5882 5882 5882 5881 5881 5880 5880 5879 5879 5878 5878 5877 5877 5876 5876 5875 5875 5874 5873 5872 5872 5871 5871 5870 5869 5868 5868 5867 5866 5865 5863 5862 5860 5858 5857 5855 5853 5851 5849 5848 5846 5845 5843
5845 5846 5846 5847 5848 5849 5851 5852 5854 5857 5858 5859 5860 5862 5863 5864 5866 5867 5868 5869 5871 5872 5872 5873 5873 5874 5875 5876 5877 5878 5879 5879 5880 5881 5881 5882 5882 5882 5882 5882 5882 5882 5882 5881 5881 5881 5880 5880 5880 5879 5879 5878 5878 5877 5877 5876 5876 5875 5875 5874 5874 5873 5872 5872 5871 5870 5870 5869 5868 5868 5867 5866 5864 5863 5861 5860 5859 5857 5855 5853 5851 5850 5848 5846 5844 5843 5841
5842 5843 5843 5844 5844 5845 5847 5848 5850 5852 5854 5855 5857 5859 5860 5862 5865 5866 5867 5868 5870 5870 5871 5872 5872 5873 5874 5875 5876 5876 5877 5878 5879 5879 5880 5880 5880 5880 5881 5881 5880 5880 5880 5880 5880 5880 5879 5879 5878 5878 5877 5877 5876 5876 5875 5875 5874 5874 5873 5873 5872 5872 5871 5871 5870 5869 5868 5868 5867 5866 5865 5864 5863 5861 5860 5858 5857 5855 5853 5851 5850 5848 5847 5845 5843 5841 5840
5839 5840 5841 5841 5841 5842 5843 5845 5847 5849 5850 5852 5854 5856 5858 5860 5863 5865 5866 5867 5868 5869 5870 5870 5871 5872 5873 5873 5874 5875 5876 5877 5878 5878 5878 5879 5879 5879 5879 5879 5879 5879 5879 5878 5878 5878 5877 5877 5877 5876 5876 5876 5875 5874 5874 5873 5873 5872 5871 5871 5870 5870 5869 5869 5868 5867 5867 5866 5865 5864 5863 5862 5861 5859 5858 5856 5855 5853 5851 5849 5848 5846 5845 5843 5841 5839 5838
5836 5837 5838 5838 5838 5839 5841 5843 5845 5846 5848 5849 5851 5853 5856 5858 5861 5863 5865 5865 5866 5868 5869 5869 5870 5871 5872 5872 5873 5874 5875 5876 5876 5877 5877 5877 5877 5878 5878 5878 5877 5877 5877 5877 5876 5876 5876 5875 5875 5875 5874 5874 5873 5873 5872 5872 5871 5871 5870 5869 5869 5868 5867 5867 5866 5866 5865 5864 5863 5862 5861 5860 5859 5857 5856 5854 5853 5851 5849 5848 5846 5845 5843 5841 5840 5838 5836
5833 5834 5834 5835 5836 5838 5840 5842 5843 5844 5846 5847 5848 5850 5854 5857 5860 5862 5863 5863 5864 5866 5867 5868 5869 5870 5871 5872 5872 5873 5874 5875 5875 5876 5875 5875 5876 5876 5876 5875 5875 5875 5875 5875 5874 5874 5874 5874 5873 5873 5873 5872 5872 5871 5871 5870 5869 5869 5868 5867 5867 5866 5865 5865 5864 5864 5863 5862 5861 5860 5859 5858 5857 5855 5854 5853 5851 5849 5848 5846 5845 5843 5841 5840 5838 5836 5834
5830 5830 5831 5833 5835 5836 5838 5840 5841 5842 5843 5844 5845 5847 5851 5854 5858 5861 5862 5861 5862 5864 5865 5866 5868 5869 5870 5871 5872 5872 5873 5874 5874 5874 5874 5874 5874 5873 5873 5873 5873 5873 5873 5873 5873 5873 5873 5872 5872 5872 5871 5871 5870 5870 5869 5869 5868 5867 5866 5866 5865 5864 5863 5863 5862 5862 5861 5860 5859 5858 5857 5856 5855 5854 5852 5851 5850 5848 5846 5845 5843 5841 5839 5838 5836 5835 5833
5826 5827 5829 5831 5832 5834 5835 5837 5839 5839 5840 5841 5843 5845 5848 5851 5855 5858 5860 5860 5861 5862 5863 5865 5866 5867 5868 5869 5870 5871 5872 5872 5872 5872 5871 5871 5871 5871 5871 5871 5871 5870 5871 5871 5871 5871 5871 5871 5871 5870 5870 5869 5869 5868 5868 5867 5866 5866 5865 5864 5863 5863 5862 5861 5861 5860 5859 5858 5857 5856 5855 5854 5853 5852 5850 5849 5847 5846 5844 5843 5841 5839 5838 5836 5834 5833 5831
5823 5824 5826 5828 5830 5831 5832 5833 5835 5836 5837 5839 5841 5843 5846 5848 5851 5855 5857 5857 5859 5861 5862 5863 5864 5865 5866 5867 5868 5869 5870 5870 5870 5870 5869 5869 5869 5869 5869 5869 5868 5868 5868 5868 5869 5869 5869 5869 5869 5869 5868 5868 5867 5867 5866 5865 5865 5864 5863 5862 5862 5861 5860 5860 5859 5858 5857 5856 5855 5854 5853 5852 5851 5850 5848 5847 5845 5844 5842 5841 5839 5838 5836 5834 5833 5831 5829
5820 5821 5823 5825 5827 5828 5828 5829 5830 5831 5833 5835 5837 5840 5843 5846 5849 5852 5854 5855 5857 5858 5860 5861 5862 5863 5864 5865 5866 5867 5867 5867 5867 5867 5867 5867 5867 5867 5867 5867 5866 5866 5866 5866 5867 5867 5867 5867 5867 5866 5866 5866 5865 5865 5864 5864 5863 5862 5862 5861 5860 5860 5859 5858 5857 5857 5856 5854 5853 5853 5852 5850 5849 5848 5847 5845 5844 5842 5841 5839 5838 5836 5835 5833 5831 5829 5828
5816 5817 5820 5822 5824 5824 5825 5825 5826 5827 5829 5831 5834 5836 5840 5844 5846 5849 5851 5853 5854 5855 5856 5858 5859 5860 5862 5863 5864 5864 5865 5865 5865 5865 5865 5865 5865 5865 5865 5865 5865 5865 5865 5865 5865 5865 5865 5865 5865 5864 5864 5864 5863 5863 5863 5862 5861 5861 5860 5859 5859 5858 5857 5856 5856 5855 5854 5853 5852 5851 5850 5849 5847 5846 5845 5843 5842 5841 5839 5837 5836 5835 5833 5831 5830 5828 5826
5812 5814 5816 5819 5820 5821 5822 5822 5823 5824 5826 5829 5831 5833 5837 5840 5843 5845 5848 5850 5851 5853 5854 5856 5857 5858 5859 5860 5861 5862 5862 5862 5863 5863 5863 5863 5863 5863 5863 5863 5863 5863 5863 5863 5863 5863 5863 5863 5862 5862 5862 5862 5862 5861 5861 5860 5860 5859 5859 5858 5857 5856 5855 5854 5854 5852 5851 5850 5850 5849 5848 5847 5845 5844 5843 5841 5840 5838 5837 5836 5834 5833 5831 5830 5828 5826 5824
5808 5810 5812 5815 5817 5818 5819 5820 5820 5820 5822 5826 5829 5831 5833 5836 5838 5841 5844 5847 5848 5850 5852 5854 5855 5855 5856 5857 5858 5859 5859 5859 5860 5860 5860 5861 5861 5861 5861 5861 5861 5861 5861 5861 5861 5860 5861 5861 5860 5860 5860 5860 5860 5859 5859 5858 5858 5857 5857 5856 5855 5855 5854 5853 5851 5850 5849 5848 5848 5846 5845 5844 5843 5842 5840 5839 5838 5836 5835 5834 5832 5831 5830 5828 5826 5824 5822
5804 5806 5809 5812 5814 5815 5816 5816 5815 5814 5816 5821 5826 5829 5831 5833 5835 5838 5841 5843 5845 5847 5849 5850 5851 5851 5853 5854 5855 5856 5856 5856 5857 5857 5857 5858 5858 5859 5859 5858 5858 5858 5859 5859 5859 5858 5858 5858 5858 5858 5858 5858 5858 5858 5857 5856 5856 5856 5855 5854 5854 5853 5852 5851 5849 5848 5847 5846 5845 5844 5843 5842 5841 5839 5838 5837 5836 5834 5833 5831 5830 5829 5827 5825 5824 5822 5821
5800 5802 5805 5809 5812 5813 5812 5811 5809 5809 5811 5817 5821 5825 5828 5831 5833 5835 5837 5839 5841 5843 5844 5846 5847 5848 5850 5851 5852 5853 5853 5853 5854 5855 5855 5855 5856 5856 5856 5856 5856 5856 5857 5857 5857 5857 5856 5856 5856 5856 5856 5856 5856 5855 5855 5855 5854 5854 5853 5852 5851 5851 5850 5849 5847 5846 5845 5844 5843 5842 5841 5840 5838 5837 5836 5835 5834 5832 5831 5829 5828 5826 5824 5823 5821 5820 5818
5796 5798 5801 5805 5809 5810 5809 5807 5806 5806 5809 5813 5817 5820 5824 5828 5830 5831 5832 5834 5836 5838 5840 5842 5843 5845 5847 5849 5850 5850 5850 5851 5852 5852 5853 5853 5854 5854 5854 5854 5854 5855 5855 5855 5855 5855 5855 5855 5855 5854 5854 5854 5854 5854 5853 5853 5852 5852 5851 5850 5849 5848 5848 5847 5846 5844 5843 5842 5841 5840 5839 5838 5836 5835 5834 5833 5831 5830 5829 5827 5825 5823 5822 5820 5819 5817 5816
5792 5794 5798 5801 5805 5807 5807 5806 5805 5805 5808 5811 5813 5816 5820 5824 5827 5828 5829 5830 5833 5835 5837 5839 5841 5842 5845 5846 5847 5848 5849 5849 5850 5850 5851 5851 5851 5851 5851 5851 5852 5853 5853 5853 5852 5853 5853 5853 5853 5853 5853 5853 5852 5852 5851 5851 5850 5850 5849 5848 5847 5846 5845 5844 5843 5842 5841 5840 5839 5838 5837 5836 5834 5833 5832 5831 5829 5828 5826 5825 5823 5821 5820 5818 5816 5815 5813
5789 5791 5794 5797 5799 5802 5804 5805 5804 5805 5806 5809 5811 5814 5818 5823 5826 5826 5826 5827 5829 5832 5835 5837 5839 5841 5843 5844 5845 5846 5846 5847 5848 5848 5848 5848 5848 5848 5848 5849 5850 5850 5851 5850 5850 5851 5851 5851 5851 5851 5850 5850 5850 5850 5849 5849 5848 5848 5847 5846 5845 5844 5843 5842 5841 5840 5839 5838 5837 5835 5834 5833 5832 5831 5830 5829 5827 5826 5824 5823 5821 5819 5818 5816 5814 5813 5811
5785 5788 5791 5792 5794 5797 5799 5801 5802 5802 5804 5807 5810 5812 5816 5820 5823 5824 5823 5822 5823 5827 5832 5835 5838 5840 5842 5842 5842 5843 5843 5844 5845 5845 5845 5845 5845 5845 5846 5846 5847 5848 5849 5849 5849 5849 5849 5849 5849 5848 5848 5848 5847 5847 5847 5847 5846 5846 5845 5844 5843 5842 5841 5840 5839 5838 5837 5836 5835 5833 5832 5831 5830 5829 5828 5826 5825 5823 5822 5820 5819 5817 5816 5814 5812 5811 5809
5782 5785 5787 5788 5790 5792 5795 5797 5799 5800 5802 5805 5808 5810 5813 5816 5819 5822 5823 5821 5819 5821 5827 5833 5836 5839 5840 5840 5840 5840 5840 5841 5842 5842 5843 5843 5843 5843 5844 5844 5845 5846 5846 5846 5846 5847 5847 5847 5846 5846 5845 5845 5845 5844 5844 5844 5844 5843 5842 5841 5841 5840 5839 5837 5836 5836 5835 5834 5832 5831 5830 5829 5828 5826 5825 5824 5823 5821 5820 5818 5816 5815 5813 5812 5810 5809 5807
5780 5782 5783 5785 5787 5789 5791 5794 5796 5798 5800 5803 5806 5808 5810 5813 5815 5819 5822 5822 5819 5818 5822 5829 5834 5836 5837 5836 5836 5836 5836 5837 5838 5839 5839 5840 5840 5841 5841 5842 5843 5843 5843 5843 5843 5844 5844 5843 5843 5843 5842 5842 5842 5842 5842 5842 5841 5840 5839 5839 5838 5837 5836 5835 5834 5833 5832 5831 5830 5829 5828 5827 5825 5824 5823 5821 5820 5818 5817 5815 5814 5812 5811 5809 5808 5806 5804
5775 5777 5779 5781 5783 5785 5788 5790 5793 5795 5798 5801 5803 5805 5807 5810 5812 5815 5819 5821 5819 5817 5818 5824 5829 5831 5831 5831 5832 5832 5832 5833 5834 5835 5835 5836 5837 5838 5839 5840 5840 5841 5841 5841 5841 5841 5841 5840 5840 5840 5839 5839 5839 5839 5839 5839 5838 5837 5836 5836 5835 5834 5833 5833 5832 5831 5830 5828 5827 5826 5825 5824 5823 5821 5820 5819 5818 5816 5814 5813 5811 5810 5808 5807 5805 5803 5802
5772 5774 5776 5777 5779 5781 5784 5787 5789 5791 5793 5796 5800 5802 5804 5806 5809 5813 5816 5818 5817 5816 5815 5817 5822 5825 5826 5826 5827 5828 5828 5829 5830 5831 5832 5833 5834 5835 5836 5837 5837 5838 5838 5838 5838 5838 5838 5838 5837 5837 5837 5836 5836 5836 5836 5835 5835 5834 5833 5833 5832 5831 5830 5829 5829 5827 5827 5825 5824 5823 5822 5821 5820 5818 5817 5816 5815 5813 5812 5810 5808 5807 5805 5804 5802 5800 5799
5767 5770 5773 5773 5774 5777 5781 5784 5785 5787 5789 5792 5795 5797 5800 5802 5805 5809 5811 5813 5815 5815 5813 5812 5815 5819 5821 5822 5823 5824 5825 5825 5826 5828 5829 5830 5831 5832 5833 5834 5834 5835 5835 5835 5836 5836 5835 5834 5834 5834 5834 5834 5833 5833 5832 5832 5831 5831 5830 5829 5828 5827 5827 5826 5825 5824 5823 5822 5821 5820 5819 5818 5817 5816 5814 5813 5812 5810 5809 5807 5805 5804 5802 5801 5799 5797 5796
5760 5764 5768 5770 5771 5774 5778 5780 5782 5784 5787 5788 5790 5792 5794 5796 5800 5805 5807 5807 5809 5812 5811 5808 5809 5813 5816 5818 5819 5821 5822 5822 5823 5825 5826 5827 5829 5830 5830 5831 5831 5832 5832 5833 5833 5832 5832 5831 5831 5831 5831 5830 5830 5829 5829 5828 5828 5827 5827 5826 5825 5824 5823 5823 5822 5821 5820 5818 5817 5817 5816 5815 5814 5813 5811 5810 5808 5807 5805 5804 5802 5801 5799 5798 5796 5794 5792
5753 5757 5762 5765 5768 5771 5774 5776 5778 5781 5783 5786 5787 5790 5792 5795 5800 5804 5805 5803 5804 5806 5807 5805 5805 5808 5812 5814 5816 5818 5819 5820 5821 5822 5823 5824 5826 5827 5827 5828 5828 5829 5829 5830 5830 5829 5828 5828 5828 5828 5828 5827 5827 5826 5825 5824 5824 5824 5823 5822 5821 5820 5820 5819 5818 5817 5816 5815 5814 5813 5812 5811 5810 5809 5807 5806 5805 5803 5802 5801 5799 5797 5796 5794 5792 5790 5789
5750 5754 5758 5762 5765 5768 5770 5773 5775 5778 5781 5784 5786 5788 5791 5795 5798 5801 5802 5800 5801 5803 5804 5803 5803 5805 5808 5811 5813 5815 5816 5817 5818 5819 5820 5821 5823 5824 5824 5825 5825 5826 5827 5828 5827 5826 5826 5825 5825 5825 5824 5824 5823 5822 5821 5821 5821 5820 5820 5819 5817 5816 5816 5816 5815 5813 5812 5811 5810 5809 5808 5807 5806 5805 5804 5802 5801 5800 5798 5797 5795 5793 5792 5790 5788 5786 5785
5748 5751 5755 5759 5762 5765 5767 5770 5773 5776 5779 5782 5784 5786 5789 5792 5794 5795 5796 5797 5799 5800 5802 5802 5802 5803 5805 5807 5810 5812 5813 5814 5815 5816 5817 5818 5819 5820 5821 5822 5822 5823 5824 5825 5824 5823 5823 5822 5822 5822 5821 5820 5819 5818 5817 5817 5817 5817 5816 5815 5814 5812 5812 5811 5811 5810 5809 5808 5807 5806 5805 5803 5802 5801 5800 5799 5797 5796 5794 5793 5791 5789 5788 5786 5784 5782 5780